SCP
0 1 1 1 1 1 0 0 0 0 0 0 0 0 0 0 0 0 0 0 0 0 0 0 0 0 0 0 0 0 0 0 0 0 0 0 0 0 0 0 0 0 0
0 0 0 1 1 1 1 0 0 0 0 0 0 0 0 0 0 0 0 0 0 0 0 0 0 0 0 0 0 0 0 0 0 0 0 0 0 0 0 0 0 0 0
0 0 0 0 1 1 1 0 0 0 0 0 0 0 0 0 0 0 0 0 0 0 0 0 0 0 0 0 0 0 0 0 0 0 0 0 0 0 0 0 0 0 0
1 1 1 0 1 1 1 0 0 0 0 0 0 0 0 0 0 0 0 0 0 0 0 0 0 0 0 0 0 0 0 0 0 0 0 0 0 0 0 0 0 0 0
1 1 1 1 1 1 1 0 0 0 0 0 0 0 0 0 0 0 0 0 0 0 0 0 0 0 0 0 0 0 0 0 0 0 0 0 0 0 0 0 0 0 0
2 2 1 1 1 1 1 1 0 0 0 0 0 0 0 0 0 0 0 0 0 0 0 0 0 0 0 0 0 0 0 0 0 0 0 0 0 0 0 0 0 0 0
2 2 2 2 1 1 1 1 0 0 0 1 1 1 1 1 0 0 0 0 0 0 0 0 0 0 0 0 0 0 0 0 0 0 0 0 0 0 0 0 0 0 0
2 2 2 2 2 2 2 1 1 0 0 1 1 1 1 1 1 0 0 0 0 0 0 0 0 0 0 0 0 0 0 0 0 0 0 0 0 0 0 0 0 0 0
2 2 2 3 3 3 2 1 1 0 0 0 1 1 1 1 1 0 0 0 0 0 0 0 0 0 0 0 0 0 0 0 0 0 0 0 0 0 0 0 0 0 0
1 2 2 3 4 4 3 2 0 0 0 0 0 1 1 2 1 0 0 0 0 0 0 0 0 0 0 0 0 0 0 0 0 0 0 0 0 0 0 0 0 0 0
2 2 2 3 4 3 2 1 0 0 0 0 0 0 1 2 1 0 0 0 0 0 0 0 0 0 0 0 0 0 0 0 0 0 0 0 0 0 0 0 0 0 0
1 2 2 3 3 3 2 1 0 0 0 0 0 0 0 1 1 0 0 0 0 0 0 0 0 0 0 0 0 0 0 0 0 0 0 0 0 0 0 0 0 0 0
1 2 2 2 2 2 2 2 1 0 0 0 0 0 0 0 0 0 0 0 0 0 0 0 0 0 0 0 0 0 0 0 0 0 0 0 0 0 0 0 0 0 0
1 1 1 1 1 1 2 1 1 0 0 0 0 0 0 0 0 0 0 0 0 0 0 0 0 0 0 0 0 0 0 0 0 0 0 0 0 0 0 0 0 0 0
0 0 1 1 1 1 1 0 0 0 0 0 0 0 0 0 0 0 0 0 0 0 0 0 0 0 0 0 0 0 0 0 0 0 0 0 0 0 0 0 0 0 0
0 0 0 0 0 0 0 0 0 0 0 0 0 0 0 0 0 0 0 0 0 0 0 0 0 0 0 0 0 0 0 0 0 0 0 0 0 0 0 0 0 0 0
0 0 0 0 0 0 0 0 0 0 0 0 0 0 0 0 0 0 0 0 0 0 0 0 0 0 0 0 0 0 0 0 0 0 0 0 0 0 0 0 0 0 0
0 0 0 0 0 0 0 0 0 0 0 0 0 0 0 0 0 0 0 0 0 0 0 0 0 0 0 0 0 0 0 0 0 0 0 0 0 0 0 0 0 0 0
0 0 0 0 0 0 0 0 0 0 0 0 0 0 0 0 0 0 0 0 0 0 0 0 0 0 0 0 0 0 0 0 0 0 0 0 0 0 0 0 0 0 0
0 0 0 0 0 0 0 0 0 0 0 0 0 0 0 0 0 0 0 0 0 0 0 0 0 0 0 0 0 0 0 0 0 0 0 0 0 0 0 0 0 0 0
0 0 0 0 0 0 0 0 0 0 0 0 0 0 0 0 0 0 0 0 0 0 0 0 0 0 0 0 0 0 0 0 0 0 0 0 0 0 0 0 0 0 0
0 0 0 0 0 0 0 0 0 0 0 0 0 0 0 0 0 0 0 0 0 -0 0 0 0 0 0 0 0 0 0 0 0 0 0 0 0 0 0 0 0 0 0
0 0 0 0 0 0 0 0 0 0 0 0 0 0 0 0 0 0 0 -0 -0 -0 0 0 0 0 0 0 0 0 0 0 0 0 0 0 0 0 0 0 0 0 0
-0 0 0 0 0 0 0 0 0 0 0 0 0 -0 -0 -0 -0 -0 -0 -0 -0 -0 0 0 0 0 0 0 0 0 0 0 0 0 0 0 0 0 0 0 0 0 0
0 0 0 0 0 0 0 0 0 0 0 0 -0 -0 -0 -0 -0 -0 -0 -0 0 0 0 0 0 0 0 0 0 0 0 0 0 0 0 0 0 0 0 0 0 0 0
0 0 0 0 0 0 0 0 0 0 0 -0 -0 -0 -0 -0 -0 -0 -0 -0 0 0 0 0 0 0 0 0 0 0 0 0 0 0 0 0 0 0 0 0 0 0 0
Wind_Speed
5 5 6 6 6 6 6 6 6 5 6 6 6 5 5 5 5 5 4 5 5 4 3 4 3 3 3 2 2 2 1 1 2 0 1 2 4 5 5 4 4 3 4
5 5 6 6 6 6 6 6 6 6 6 6 6 6 5 5 5 5 5 5 5 5 4 5 4 3 4 3 2 2 2 1 2 1 1 2 4 4 5 5 5 5 4
5 6 6 6 6 6 6 5 5 6 6 6 6 6 5 5 5 5 5 6 6 6 5 5 4 5 5 4 4 3 2 2 1 1 1 2 2 3 4 4 5 5 5
6 6 6 6 6 6 6 6 6 6 6 6 5 5 6 6 6 7 7 8 8 7 7 7 6 6 5 5 4 4 3 4 3 3 2 2 2 3 3 4 4 4 4
6 6 6 6 6 6 6 6 6 6 6 6 6 6 6 5 6 8 8 9 9 9 8 8 8 10 10 7 6 5 5 4 4 4 3 3 3 4 4 3 3 3 2
6 6 6 6 7 7 7 7 7 7 6 7 7 7 7 5 9 11 10 9 9 9 9 8 9 10 13 15 16 13 9 6 4 3 3 3 4 3 3 3 3 4 3
5 6 6 7 7 7 8 9 9 8 8 8 7 8 9 9 12 14 15 11 10 9 8 7 7 8 9 9 12 15 15 15 11 5 5 4 3 4 4 4 4 3 3
6 6 7 8 8 8 9 9 8 8 8 8 8 9 10 10 14 16 17 13 11 10 8 8 8 7 7 8 9 10 10 10 10 8 6 5 5 4 3 3 3 3 3
6 6 7 8 10 10 10 9 8 9 9 9 8 9 10 10 13 15 14 10 10 10 8 8 8 8 10 10 9 9 8 7 9 12 12 11 12 12 8 4 4 4 4
6 7 7 9 10 10 10 10 9 9 10 10 10 9 10 10 12 13 12 8 9 8 7 8 11 10 10 10 8 8 8 5 5 7 8 9 9 10 11 7 4 4 3
7 8 9 9 11 11 11 9 10 10 11 11 11 9 9 9 11 12 11 7 8 8 7 6 7 12 12 11 9 7 6 5 5 6 5 6 6 6 6 6 4 3 3
9 10 10 10 10 11 12 11 10 11 12 10 10 9 7 7 9 11 13 11 9 9 7 6 7 12 13 12 9 9 9 7 5 5 5 5 5 6 6 6 6 5 4
11 11 11 11 10 10 11 12 10 8 8 8 8 8 6 6 8 13 14 14 13 9 8 12 12 12 11 10 12 12 8 6 5 5 5 4 4 5 5 5 6 6 6
12 12 11 12 12 10 8 8 9 8 8 8 8 7 7 6 6 6 7 9 12 10 9 11 13 12 10 9 9 7 6 5 5 4 4 4 4 5 5 5 5 7 6
12 12 12 11 12 11 10 8 8 6 7 9 7 7 8 7 5 7 7 7 6 7 7 6 6 5 6 5 5 5 4 4 5 4 4 5 5 6 6 6 5 6 5
12 11 10 10 10 10 11 12 16 13 15 14 12 9 7 9 11 12 12 12 11 10 8 6 5 4 4 3 3 3 3 4 4 4 4 5 6 6 7 6 6 6 7
13 11 10 10 10 10 10 11 11 12 16 15 13 12 11 12 12 13 14 13 11 10 7 5 4 3 3 2 2 2 2 3 3 4 4 5 5 6 6 6 7 7 7
13 14 12 9 9 9 9 9 9 9 9 7 8 11 12 12 12 12 12 10 7 5 4 4 3 2 2 1 1 1 2 3 3 4 4 5 5 6 6 6 7 8 8
11 9 9 9 8 8 8 8 8 9 8 7 6 7 9 11 10 9 7 5 4 3 3 3 2 1 1 0 1 1 2 3 4 4 4 5 5 5 6 6 7 9 8
10 16 13 9 9 8 8 8 8 8 7 7 6 5 4 5 4 4 3 3 3 3 2 2 1 1 1 0 1 1 2 3 4 4 5 5 5 5 6 7 7 7 7
9 11 15 10 8 7 7 7 7 7 7 6 5 4 6 5 5 4 3 2 2 2 2 2 1 1 1 1 1 2 3 3 4 4 4 5 5 5 5 6 7 7 8
8 8 7 8 7 6 6 6 7 7 7 7 5 4 6 4 4 3 2 2 2 2 2 2 2 2 2 2 2 3 3 4 4 4 4 5 5 5 6 6 7 7 8
8 8 7 7 6 8 7 6 6 6 6 6 5 4 4 3 3 3 2 2 2 2 2 2 2 2 3 3 3 3 4 4 4 4 5 5 5 5 6 7 9 9 9
7 8 8 7 6 6 7 6 6 6 6 5 4 4 4 3 3 3 2 2 2 2 2 3 3 5 6 5 3 4 4 4 4 4 5 6 6 6 6 7 8 9 9
7 7 7 6 6 6 6 6 6 5 5 5 4 4 4 3 3 3 3 3 3 4 4 4 4 5 7 8 7 5 5 6 5 4 4 5 6 7 7 8 8 9 9
6 6 6 5 6 6 6 6 5 5 5 5 4 4 4 4 4 4 4 4 4 4 5 5 6 7 8 7 8 8 6 6 6 5 4 5 6 6 7 7 10 9 9
Wind_Direction
167 166 162 162 158 157 163 167 164 158 155 155 157 155 155 153 152 148 147 145 136 126 124 122 110 102 95 79 78 84 90 133 167 275 350 5 21 20 16 20 23 23 22
155 153 156 152 151 156 161 162 156 152 152 152 149 147 151 151 151 151 148 142 137 129 120 113 104 100 90 79 80 77 71 89 155 175 11 12 24 15 15 22 22 23 23
152 151 153 154 154 158 156 151 146 140 136 137 141 145 143 139 136 136 133 124 115 109 106 104 98 99 88 77 74 69 58 64 78 116 44 15 14 15 9 16 20 11 22
157 156 160 162 158 153 147 141 138 134 130 131 136 139 137 132 126 123 118 113 106 96 91 89 86 88 90 84 73 60 61 63 61 69 53 25 13 4 17 9 6 2 5
158 162 166 160 151 144 140 134 129 128 130 128 123 116 113 115 122 123 119 115 107 98 88 84 83 85 82 79 78 66 65 66 63 60 50 36 21 13 9 354 356 342 355
160 162 154 151 147 142 137 129 120 114 112 110 107 105 99 100 111 116 115 108 103 99 91 82 78 72 76 75 73 69 68 69 68 65 54 45 24 7 355 360 359 358 348
151 148 149 150 143 137 130 120 117 113 106 101 101 101 96 94 102 106 107 105 99 93 90 86 80 73 74 78 73 67 61 61 66 82 69 47 24 2 2 12 12 0 333
150 145 140 136 130 123 119 117 114 110 108 104 100 99 97 94 98 101 102 98 93 88 85 85 86 75 76 86 84 74 66 57 57 63 69 54 41 23 22 14 347 334 310
148 144 140 137 131 127 123 120 115 111 105 100 98 100 100 96 97 102 104 100 93 84 78 76 81 79 79 85 85 80 68 55 56 61 61 55 47 43 38 30 18 5 347
149 141 134 130 127 126 122 118 111 108 106 101 93 91 97 96 92 96 102 104 100 93 81 75 76 81 77 77 81 80 73 52 42 43 43 40 38 36 36 34 18 5 346
125 121 119 118 119 119 115 114 113 109 104 100 95 87 85 89 88 92 99 107 111 104 92 80 74 79 78 74 75 75 77 72 56 50 43 35 30 25 21 17 12 359 342
119 116 114 114 117 119 117 112 109 109 106 103 99 89 75 75 82 89 90 94 102 101 97 91 87 84 79 74 72 71 70 64 56 48 40 27 17 9 359 352 351 344 314
116 112 110 106 105 112 116 116 109 104 105 107 105 100 90 81 77 79 85 90 93 94 96 98 91 84 77 70 65 64 59 54 50 44 32 17 359 346 345 343 343 342 329
113 110 109 107 102 98 98 104 109 111 111 108 107 107 102 93 87 87 88 90 89 92 91 88 82 74 71 67 61 54 51 51 50 39 19 0 352 351 354 351 342 343 335
107 107 106 105 107 98 85 78 91 88 113 120 116 117 115 104 98 110 111 104 105 107 103 86 76 70 66 61 57 52 46 42 37 23 12 1 354 351 348 347 341 338 334
107 105 105 107 107 106 103 85 65 80 86 89 98 105 95 108 114 107 104 104 105 109 96 89 83 79 76 68 61 50 38 29 20 10 5 358 350 345 340 339 338 333 327
109 108 106 108 110 111 110 109 101 77 70 78 89 99 108 114 110 109 105 98 94 96 93 98 97 92 83 71 57 39 17 4 359 359 356 349 343 338 335 335 335 331 326
104 107 109 108 109 110 112 112 114 115 106 84 75 93 106 108 108 111 110 98 83 79 101 110 108 102 94 78 45 13 353 350 351 348 343 340 338 334 332 332 330 328 323
106 109 108 107 106 107 109 109 111 112 113 113 106 91 95 98 94 93 96 100 113 110 109 112 120 126 123 90 349 339 335 334 335 333 334 335 335 332 329 327 323 321 319
106 116 115 113 113 112 112 114 115 118 120 121 122 125 122 109 104 93 86 105 115 119 124 133 148 171 195 271 306 311 317 323 330 330 331 332 330 327 323 321 320 320 319
114 119 119 115 118 121 123 125 127 128 128 127 129 140 141 130 130 128 126 128 135 144 158 169 186 211 234 248 267 290 306 316 320 321 323 324 324 321 317 314 313 313 313
115 119 124 126 125 124 126 129 131 133 136 133 129 124 126 123 133 139 145 156 172 186 194 199 217 233 240 248 259 275 292 302 308 313 315 315 315 314 314 314 316 318 318
119 122 122 121 123 126 126 130 135 139 141 141 140 138 139 140 150 161 174 185 189 198 205 214 235 252 253 251 249 251 268 284 290 295 301 306 309 311 312 313 315 318 320
124 128 129 129 129 134 138 141 144 146 146 147 150 155 161 167 176 189 200 207 216 227 230 232 242 253 262 265 258 252 254 261 270 274 282 289 298 302 305 308 310 314 314
127 130 133 137 140 142 144 146 149 151 155 161 166 171 177 184 196 211 219 225 233 242 248 250 251 257 264 268 268 263 255 253 256 267 273 277 289 296 302 305 308 311 313
130 133 135 139 143 149 152 157 161 164 169 175 180 185 192 201 212 222 228 232 239 247 255 259 260 262 268 271 270 267 260 257 259 259 266 276 287 295 305 304 309 310 311